Terminal Aerodrome Forecast
Issued by NWS

Home | Current Version | Previous Version | Text Only | Print | Product List | Glossary On
Versions: 1 2 3 4 5 6 7 8 9 10 11 12
000
FTUS43 KLSX 281120
TAFUIN
TAF
KUIN 281120Z 2812/2912 16007KT P6SM BKN250
     FM281600 18014G21KT P6SM SCT050 BKN150
     FM290100 17009KT P6SM BKN120
     FM290600 18009KT P6SM VCTS SCT050CB BKN120=

USA.gov is the U.S. government's official web portal to all federal, state and local government web resources and services.